| time (UTC) | temp F | wind direction | speed MPH | gust MPH | rain 1hr in | rain 24hr in | rain mn in | humidity % | barometer mb |
| 20260901231050 | 100 | 121 | 3.0 | 14.0 | 0.00 | 0.00 | 0.00 | 33 | 974.3 |
| 20260901230550 | 101 | 138 | 3.0 | 12.0 | 0.00 | 0.00 | 0.00 | 33 | 974.4 |
| 20260901230049 | 101 | 149 | 6.0 | 13.0 | 0.00 | 0.00 | 0.00 | 32 | 974.3 |
| 20260901225553 | 101 | 112 | 0.0 | 8.0 | 0.00 | 0.00 | 0.00 | 33 | 974.4 |
| 20260901225050 | 101 | 168 | 0.0 | 7.0 | 0.00 | 0.00 | 0.00 | 33 | 974.5 |
| 20260901224556 | 100 | 54 | 2.0 | 11.0 | 0.00 | 0.00 | 0.00 | 33 | 974.5 |
| 20260901224050 | 100 | 66 | 6.0 | 12.0 | 0.00 | 0.00 | 0.00 | 33 | 974.5 |
| 20260901223550 | 100 | 26 | 4.0 | 12.0 | 0.00 | 0.00 | 0.00 | 36 | 974.6 |
| 20260901223055 | 99 | 43 | 2.0 | 9.0 | 0.00 | 0.00 | 0.00 | 36 | 974.5 |
| 20260901222550 | 99 | 44 | 2.0 | 15.0 | 0.00 | 0.00 | 0.00 | 37 | 974.7 |
| 20260901222050 | 99 | 36 | 7.0 | 15.0 | 0.00 | 0.00 | 0.00 | 37 | 974.7 |
| 20260901221558 | 99 | 5 | 9.0 | 13.0 | 0.00 | 0.00 | 0.00 | 37 | 974.8 |
| 20260901221051 | 98 | 27 | 8.0 | 13.0 | 0.00 | 0.00 | 0.00 | 37 | 974.9 |
| 20260901220550 | 98 | 319 | 6.0 | 11.0 | 0.00 | 0.00 | 0.00 | 37 | 975.0 |
| 20260901220050 | 99 | 302 | 6.0 | 11.0 | 0.00 | 0.00 | 0.00 | 38 | 975.0 |
| 20260901215550 | 98 | 141 | 2.0 | 7.0 | 0.00 | 0.00 | 0.00 | 38 | 975.1 |
| 20260901215049 | 98 | 54 | 1.0 | 11.0 | 0.00 | 0.00 | 0.00 | 39 | 975.1 |
| 20260901214559 | 99 | 29 | 6.0 | 11.0 | 0.00 | 0.00 | 0.00 | 38 | 975.2 |
| 20260901214050 | 99 | 344 | 4.0 | 9.0 | 0.00 | 0.00 | 0.00 | 39 | 975.4 |
| 20260901213551 | 97 | 259 | 0.0 | 12.0 | 0.00 | 0.00 | 0.00 | 40 | 975.4 |
| 20260901213055 | 97 | 22 | 2.0 | 17.0 | 0.00 | 0.00 | 0.00 | 41 | 975.5 |
| 20260901212551 | 97 | 15 | 10.0 | 17.0 | 0.00 | 0.00 | 0.00 | 41 | 975.6 |
| 20260901212051 | 96 | 344 | 8.0 | 15.0 | 0.00 | 0.00 | 0.00 | 42 | 975.7 |
| 20260901211550 | 96 | 281 | 10.0 | 17.0 | 0.00 | 0.00 | 0.00 | 42 | 975.9 |
| 20260901211050 | 96 | 331 | 7.0 | 17.0 | 0.00 | 0.00 | 0.00 | 42 | 976.0 |
| 20260901210551 | 96 | 298 | 9.0 | 15.0 | 0.00 | 0.00 | 0.00 | 42 | 976.0 |
| 20260901210109 | 96 | 256 | 9.0 | 16.0 | 0.00 | 0.00 | 0.00 | 42 | 976.1 |
| 20260901205551 | 96 | 301 | 10.0 | 18.0 | 0.00 | 0.00 | 0.00 | 42 | 976.2 |
| 20260901205049 | 96 | 177 | 11.0 | 18.0 | 0.00 | 0.00 | 0.00 | 42 | 976.3 |
| 20260901204550 | 96 | 312 | 8.0 | 14.0 | 0.00 | 0.00 | 0.00 | 42 | 976.4 |
| 20260901204053 | 96 | 32 | 5.0 | 14.0 | 0.00 | 0.00 | 0.00 | 42 | 976.5 |
| 20260901203550 | 96 | 19 | 7.0 | 15.0 | 0.00 | 0.00 | 0.00 | 42 | 976.6 |
| 20260901203050 | 95 | 333 | 5.0 | 18.0 | 0.00 | 0.00 | 0.00 | 43 | 976.6 |
| 20260901202550 | 95 | 329 | 10.0 | 18.0 | 0.00 | 0.00 | 0.00 | 43 | 976.8 |
| 20260901202051 | 96 | 310 | 8.0 | 12.0 | 0.00 | 0.00 | 0.00 | 43 | 976.8 |
| 20260901201550 | 96 | 17 | 3.0 | 13.0 | 0.00 | 0.00 | 0.00 | 43 | 976.9 |
| 20260901201050 | 96 | 16 | 6.0 | 14.0 | 0.00 | 0.00 | 0.00 | 43 | 976.8 |
| 20260901200550 | 96 | 16 | 7.0 | 14.0 | 0.00 | 0.00 | 0.00 | 43 | 976.8 |
| 20260901200050 | 95 | 14 | 3.0 | 14.0 | 0.00 | 0.00 | 0.00 | 44 | 977.1 |
| 20260901195550 | 96 | 17 | 6.0 | 15.0 | 0.00 | 0.00 | 0.00 | 43 | 977.1 |
| 20260901195052 | 95 | 5 | 10.0 | 15.0 | 0.00 | 0.00 | 0.00 | 45 | 977.1 |
| 20260901194554 | 94 | 15 | 9.0 | 14.0 | 0.00 | 0.00 | 0.00 | 44 | 977.3 |
| 20260901194050 | 95 | 15 | 6.0 | 13.0 | 0.00 | 0.00 | 0.00 | 45 | 977.4 |
| 20260901193550 | 95 | 17 | 6.0 | 12.0 | 0.00 | 0.00 | 0.00 | 45 | 977.5 |
| 20260901193050 | 94 | 16 | 5.0 | 17.0 | 0.00 | 0.00 | 0.00 | 46 | 977.5 |
| 20260901192551 | 94 | 15 | 5.0 | 17.0 | 0.00 | 0.00 | 0.00 | 46 | 977.6 |
| 20260901192056 | 94 | 15 | 3.0 | 9.0 | 0.00 | 0.00 | 0.00 | 46 | 977.7 |
| 20260901191553 | 94 | 271 | 4.0 | 15.0 | 0.00 | 0.00 | 0.00 | 46 | 977.8 |
| 20260901191050 | 94 | 17 | 8.0 | 15.0 | 0.00 | 0.00 | 0.00 | 46 | 977.9 |
| 20260901190550 | 93 | 13 | 5.0 | 13.0 | 0.00 | 0.00 | 0.00 | 47 | 978.0 |
| 20260901190054 | 93 | 17 | 2.0 | 16.0 | 0.00 | 0.00 | 0.00 | 47 | 978.2 |
| 20260901185551 | 93 | 16 | 5.0 | 16.0 | 0.00 | 0.00 | 0.00 | 47 | 978.2 |
| 20260901185052 | 93 | 16 | 8.0 | 13.0 | 0.00 | 0.00 | 0.00 | 47 | 978.2 |
| 20260901184559 | 93 | 19 | 6.0 | 11.0 | 0.00 | 0.00 | 0.00 | 47 | 978.1 |
| 20260901184050 | 93 | 292 | 3.0 | 15.0 | 0.00 | 0.00 | 0.00 | 48 | 978.3 |
| 20260901183550 | 92 | 9 | 4.0 | 11.0 | 0.00 | 0.00 | 0.00 | 48 | 978.3 |
| 20260901183104 | 92 | 15 | 8.0 | 13.0 | 0.00 | 0.00 | 0.00 | 49 | 978.6 |
| 20260901182550 | 92 | 15 | 7.0 | 13.0 | 0.00 | 0.00 | 0.00 | 48 | 978.7 |
| 20260901182050 | 91 | 15 | 3.0 | 14.0 | 0.00 | 0.00 | 0.00 | 49 | 978.5 |
| 20260901181550 | 91 | 288 | 5.0 | 14.0 | 0.00 | 0.00 | 0.00 | 49 | 978.5 |
| 20260901181050 | 92 | 286 | 6.0 | 14.0 | 0.00 | 0.00 | 0.00 | 49 | 978.7 |
| 20260901180550 | 91 | 15 | 6.0 | 14.0 | 0.00 | 0.00 | 0.00 | 49 | 978.8 |
| 20260901180050 | 91 | 15 | 3.0 | 12.0 | 0.00 | 0.00 | 0.00 | 49 | 978.8 |
| 20260901175551 | 91 | 5 | 3.0 | 12.0 | 0.00 | 0.00 | 0.00 | 50 | 978.8 |
| 20260901175050 | 90 | 16 | 6.0 | 12.0 | 0.00 | 0.00 | 0.00 | 50 | 978.9 |
| 20260901174550 | 90 | 17 | 5.0 | 12.0 | 0.00 | 0.00 | 0.00 | 50 | 978.8 |
| 20260901174050 | 90 | 326 | 5.0 | 12.0 | 0.00 | 0.00 | 0.00 | 50 | 978.9 |
| 20260901173549 | 90 | 5 | 4.0 | 10.0 | 0.00 | 0.00 | 0.00 | 50 | 979.0 |
| 20260901173053 | 89 | 298 | 4.0 | 10.0 | 0.00 | 0.00 | 0.00 | 51 | 979.0 |
| 20260901172550 | 89 | 338 | 5.0 | 10.0 | 0.00 | 0.00 | 0.00 | 52 | 979.0 |
| 20260901172049 | 89 | 301 | 4.0 | 11.0 | 0.00 | 0.00 | 0.00 | 53 | 979.1 |
| 20260901171557 | 88 | 298 | 7.0 | 12.0 | 0.00 | 0.00 | 0.00 | 54 | 979.2 |
| 20260901171050 | 88 | 5 | 6.0 | 12.0 | 0.00 | 0.00 | 0.00 | 54 | 979.2 |
| 20260901170550 | 88 | 298 | 8.0 | 12.0 | 0.00 | 0.00 | 0.00 | 55 | 979.1 |
| 20260901170051 | 88 | 322 | 4.0 | 10.0 | 0.00 | 0.00 | 0.00 | 56 | 979.1 |
| 20260901165550 | 88 | 5 | 4.0 | 10.0 | 0.00 | 0.00 | 0.00 | 56 | 979.2 |
| 20260901165053 | 87 | 355 | 4.0 | 11.0 | 0.00 | 0.00 | 0.00 | 57 | 979.0 |
| 20260901164550 | 86 | 317 | 8.0 | 11.0 | 0.00 | 0.00 | 0.00 | 58 | 979.2 |
| 20260901164050 | 86 | 313 | 7.0 | 13.0 | 0.00 | 0.00 | 0.00 | 58 | 979.2 |
| 20260901163550 | 86 | 315 | 8.0 | 13.0 | 0.00 | 0.00 | 0.00 | 58 | 979.1 |
| 20260901163057 | 86 | 330 | 8.0 | 12.0 | 0.00 | 0.00 | 0.00 | 58 | 979.1 |
| 20260901162552 | 86 | 13 | 5.0 | 12.0 | 0.00 | 0.00 | 0.00 | 59 | 978.9 |
| 20260901162050 | 86 | 338 | 9.0 | 12.0 | 0.00 | 0.00 | 0.00 | 59 | 979.0 |
| 20260901161558 | 86 | 317 | 5.0 | 11.0 | 0.00 | 0.00 | 0.00 | 60 | 978.9 |
| 20260901161051 | 85 | 314 | 6.0 | 10.0 | 0.00 | 0.00 | 0.00 | 59 | 978.9 |
| 20260901160555 | 85 | 323 | 5.0 | 10.0 | 0.00 | 0.00 | 0.00 | 60 | 978.9 |
| 20260901160050 | 84 | 321 | 6.0 | 10.0 | 0.00 | 0.00 | 0.00 | 60 | 978.8 |
| 20260901155550 | 84 | 317 | 6.0 | 10.0 | 0.00 | 0.00 | 0.00 | 61 | 978.8 |
| 20260901155051 | 84 | 305 | 5.0 | 12.0 | 0.00 | 0.00 | 0.00 | 61 | 978.8 |
| 20260901154613 | 84 | 321 | 7.0 | 12.0 | 0.00 | 0.00 | 0.00 | 62 | 978.8 |
| 20260901154050 | 83 | 320 | 6.0 | 10.0 | 0.00 | 0.00 | 0.00 | 62 | 978.8 |
| 20260901153554 | 83 | 332 | 7.0 | 10.0 | 0.00 | 0.00 | 0.00 | 63 | 978.8 |
| 20260901153052 | 83 | 345 | 4.0 | 10.0 | 0.00 | 0.00 | 0.00 | 64 | 978.8 |
| 20260901152550 | 82 | 320 | 7.0 | 11.0 | 0.00 | 0.00 | 0.00 | 64 | 978.8 |
| 20260901152050 | 82 | 315 | 6.0 | 11.0 | 0.00 | 0.00 | 0.00 | 64 | 978.9 |
| 20260901151550 | 82 | 323 | 8.0 | 11.0 | 0.00 | 0.00 | 0.00 | 65 | 978.9 |
| 20260901151049 | 82 | 323 | 9.0 | 11.0 | 0.00 | 0.00 | 0.00 | 65 | 978.8 |
| 20260901150553 | 81 | 311 | 6.0 | 10.0 | 0.00 | 0.00 | 0.00 | 67 | 978.9 |
| 20260901145550 | 80 | 333 | 2.0 | 10.0 | 0.00 | 0.00 | 0.00 | 69 | 978.6 |
| 20260901145049 | 80 | 322 | 6.0 | 10.0 | 0.00 | 0.00 | 0.00 | 70 | 978.6 |
| 20260901144550 | 79 | 309 | 5.0 | 10.0 | 0.00 | 0.00 | 0.00 | 71 | 978.5 |
| 20260901144053 | 79 | 319 | 5.0 | 9.0 | 0.00 | 0.00 | 0.00 | 72 | 978.5 |
| 20260901143550 | 79 | 309 | 3.0 | 9.0 | 0.00 | 0.00 | 0.00 | 72 | 978.7 |
| 20260901143050 | 78 | 320 | 5.0 | 9.0 | 0.00 | 0.00 | 0.00 | 73 | 978.5 |
| 20260901142550 | 78 | 298 | 5.0 | 9.0 | 0.00 | 0.00 | 0.00 | 74 | 978.5 |
| 20260901142050 | 77 | 307 | 6.0 | 9.0 | 0.00 | 0.00 | 0.00 | 75 | 978.5 |
| 20260901141559 | 77 | 311 | 1.0 | 6.0 | 0.00 | 0.00 | 0.00 | 76 | 978.5 |
| 20260901141051 | 77 | 315 | 3.0 | 6.0 | 0.00 | 0.00 | 0.00 | 76 | 978.5 |
| 20260901140550 | 76 | 320 | 2.0 | 8.0 | 0.00 | 0.00 | 0.00 | 76 | 978.5 |
| 20260901140056 | 76 | 321 | 4.0 | 8.0 | 0.00 | 0.00 | 0.00 | 76 | 978.3 |
| 20260901135551 | 76 | 310 | 1.0 | 6.0 | 0.00 | 0.00 | 0.00 | 77 | 978.3 |
| 20260901135052 | 76 | 306 | 1.0 | 8.0 | 0.00 | 0.00 | 0.00 | 77 | 978.3 |
| 20260901134550 | 76 | 311 | 4.0 | 8.0 | 0.00 | 0.00 | 0.00 | 77 | 978.3 |
| 20260901134049 | 75 | 360 | 4.0 | 6.0 | 0.00 | 0.00 | 0.00 | 78 | 978.2 |
| 20260901133550 | 75 | 360 | 0.0 | 2.0 | 0.00 | 0.00 | 0.00 | 79 | 978.3 |
| 20260901133053 | 75 | 355 | 0.0 | 0.0 | 0.00 | 0.00 | 0.00 | 79 | 978.2 |
| 20260901132550 | 75 | 355 | 0.0 | 0.0 | 0.00 | 0.00 | 0.00 | 79 | 978.2 |
| 20260901132051 | 75 | 355 | 0.0 | 0.0 | 0.00 | 0.00 | 0.00 | 79 | 978.1 |
| 20260901131549 | 75 | 355 | 0.0 | 0.0 | 0.00 | 0.00 | 0.00 | 79 | 978.2 |
| 20260901131051 | 75 | 355 | 0.0 | 0.0 | 0.00 | 0.00 | 0.00 | 78 | 978.1 |
| 20260901130550 | 75 | 355 | 0.0 | 5.0 | 0.00 | 0.00 | 0.00 | 78 | 978.1 |
| 20260901130050 | 75 | 355 | 1.0 | 6.0 | 0.00 | 0.00 | 0.00 | 79 | 978.0 |
| 20260901125550 | 74 | 355 | 4.0 | 6.0 | 0.00 | 0.00 | 0.00 | 79 | 978.0 |
| 20260901125050 | 74 | 360 | 0.0 | 0.0 | 0.00 | 0.00 | 0.00 | 79 | 977.9 |
| 20260901124550 | 74 | 308 | 0.0 | 0.0 | 0.00 | 0.00 | 0.00 | 79 | 977.9 |
| 20260901124052 | 74 | 308 | 0.0 | 0.0 | 0.00 | 0.00 | 0.00 | 78 | 977.8 |
| 20260901123550 | 75 | 308 | 0.0 | 2.0 | 0.00 | 0.00 | 0.00 | 77 | 977.8 |
| 20260901123054 | 75 | 308 | 0.0 | 2.0 | 0.00 | 0.00 | 0.00 | 78 | 977.7 |
| 20260901122550 | 75 | 306 | 0.0 | 1.0 | 0.00 | 0.00 | 0.00 | 78 | 977.7 |
| 20260901122049 | 75 | 304 | 0.0 | 1.0 | 0.00 | 0.00 | 0.00 | 78 | 977.5 |
| 20260901121551 | 75 | 311 | 0.0 | 1.0 | 0.00 | 0.00 | 0.00 | 78 | 977.7 |
| 20260901121052 | 75 | 312 | 0.0 | 0.0 | 0.00 | 0.00 | 0.00 | 78 | 977.8 |
| 20260901120552 | 75 | 312 | 0.0 | 0.0 | 0.00 | 0.00 | 0.00 | 78 | 977.7 |
| 20260901120107 | 75 | 312 | 0.0 | 1.0 | 0.00 | 0.00 | 0.00 | 78 | 977.7 |
| 20260901115550 | 74 | 312 | 0.0 | 1.0 | 0.00 | 0.00 | 0.00 | 79 | 977.6 |
| 20260901115050 | 74 | 312 | 0.0 | 0.0 | 0.00 | 0.00 | 0.00 | 79 | 977.4 |
| 20260901114552 | 74 | 312 | 0.0 | 0.0 | 0.00 | 0.00 | 0.00 | 79 | 977.5 |
| 20260901114050 | 74 | 312 | 0.0 | 0.0 | 0.00 | 0.00 | 0.00 | 78 | 977.6 |
| 20260901113551 | 75 | 312 | 0.0 | 2.0 | 0.00 | 0.00 | 0.00 | 78 | 977.5 |
| 20260901113057 | 75 | 312 | 0.0 | 4.0 | 0.00 | 0.00 | 0.00 | 78 | 977.4 |
| 20260901112549 | 75 | 312 | 1.0 | 4.0 | 0.00 | 0.00 | 0.00 | 78 | 977.4 |
| 20260901112050 | 75 | 311 | 1.0 | 3.0 | 0.00 | 0.00 | 0.00 | 77 | 977.2 |
| 20260901111557 | 75 | 311 | 0.0 | 3.0 | 0.00 | 0.00 | 0.00 | 76 | 977.3 |
| 20260901111049 | 76 | 311 | 1.0 | 5.0 | 0.00 | 0.00 | 0.00 | 75 | 977.4 |
| 20260901110549 | 76 | 311 | 3.0 | 5.0 | 0.00 | 0.00 | 0.00 | 75 | 977.4 |
| 20260901110051 | 77 | 311 | 3.0 | 5.0 | 0.00 | 0.00 | 0.00 | 74 | 977.4 |
| 20260901105551 | 77 | 313 | 3.0 | 5.0 | 0.00 | 0.00 | 0.00 | 73 | 977.3 |
| 20260901105051 | 77 | 312 | 2.0 | 5.0 | 0.00 | 0.00 | 0.00 | 73 | 977.4 |
| 20260901104550 | 77 | 309 | 2.0 | 5.0 | 0.00 | 0.00 | 0.00 | 73 | 977.5 |
| 20260901104050 | 77 | 309 | 2.0 | 5.0 | 0.00 | 0.00 | 0.00 | 73 | 977.4 |
| 20260901103550 | 78 | 306 | 3.0 | 9.0 | 0.00 | 0.00 | 0.00 | 72 | 977.3 |
| 20260901103059 | 78 | 323 | 3.0 | 9.0 | 0.00 | 0.00 | 0.00 | 72 | 977.4 |
| 20260901102550 | 78 | 360 | 4.0 | 9.0 | 0.00 | 0.00 | 0.00 | 72 | 977.4 |
| 20260901102051 | 78 | 360 | 3.0 | 9.0 | 0.00 | 0.00 | 0.00 | 73 | 977.3 |
| 20260901101552 | 78 | 19 | 5.0 | 9.0 | 0.00 | 0.00 | 0.00 | 72 | 977.4 |
| 20260901101050 | 78 | 360 | 4.0 | 6.0 | 0.00 | 0.00 | 0.00 | 72 | 977.4 |
| 20260901100553 | 78 | 355 | 3.0 | 6.0 | 0.00 | 0.00 | 0.00 | 72 | 977.3 |
| 20260901100050 | 78 | 355 | 4.0 | 6.0 | 0.00 | 0.00 | 0.00 | 71 | 977.2 |
| 20260901095550 | 78 | 355 | 3.0 | 6.0 | 0.00 | 0.00 | 0.00 | 71 | 977.3 |
| 20260901095050 | 78 | 355 | 4.0 | 6.0 | 0.00 | 0.00 | 0.00 | 71 | 977.3 |
| 20260901094555 | 78 | 355 | 2.0 | 5.0 | 0.00 | 0.00 | 0.00 | 70 | 977.4 |
| 20260901094053 | 78 | 355 | 2.0 | 6.0 | 0.00 | 0.00 | 0.00 | 70 | 977.4 |
| 20260901093549 | 78 | 355 | 3.0 | 6.0 | 0.00 | 0.00 | 0.00 | 70 | 977.4 |
| 20260901093052 | 78 | 355 | 2.0 | 4.0 | 0.00 | 0.00 | 0.00 | 70 | 977.3 |
| 20260901092550 | 78 | 350 | 1.0 | 4.0 | 0.00 | 0.00 | 0.00 | 70 | 977.3 |
| 20260901092050 | 78 | 350 | 1.0 | 4.0 | 0.00 | 0.00 | 0.00 | 70 | 977.4 |
| 20260901091601 | 79 | 350 | 2.0 | 4.0 | 0.00 | 0.00 | 0.00 | 69 | 977.5 |
| 20260901091049 | 79 | 350 | 2.0 | 5.0 | 0.00 | 0.00 | 0.00 | 69 | 977.4 |
| 20260901090549 | 79 | 350 | 2.0 | 5.0 | 0.00 | 0.00 | 0.00 | 69 | 977.4 |
| 20260901090100 | 79 | 350 | 1.0 | 5.0 | 0.00 | 0.00 | 0.00 | 68 | 977.4 |
| 20260901085550 | 79 | 350 | 1.0 | 5.0 | 0.00 | 0.00 | 0.00 | 68 | 977.4 |
| 20260901085051 | 79 | 350 | 3.0 | 6.0 | 0.00 | 0.00 | 0.00 | 68 | 977.5 |
| 20260901084553 | 79 | 350 | 3.0 | 6.0 | 0.00 | 0.00 | 0.00 | 68 | 977.5 |
| 20260901084051 | 79 | 348 | 3.0 | 5.0 | 0.00 | 0.00 | 0.00 | 68 | 977.5 |
| 20260901083550 | 79 | 346 | 1.0 | 5.0 | 0.00 | 0.00 | 0.00 | 68 | 977.7 |
| 20260901083101 | 79 | 346 | 2.0 | 5.0 | 0.00 | 0.00 | 0.00 | 68 | 977.6 |
| 20260901082550 | 79 | 346 | 1.0 | 5.0 | 0.00 | 0.00 | 0.00 | 68 | 977.7 |
| 20260901082050 | 79 | 346 | 1.0 | 5.0 | 0.00 | 0.00 | 0.00 | 67 | 977.7 |
| 20260901081550 | 79 | 345 | 2.0 | 4.0 | 0.00 | 0.00 | 0.00 | 67 | 977.6 |
| 20260901081050 | 79 | 342 | 1.0 | 4.0 | 0.00 | 0.00 | 0.00 | 67 | 977.5 |
| 20260901080550 | 80 | 342 | 2.0 | 5.0 | 0.00 | 0.00 | 0.00 | 66 | 977.6 |
| 20260901080100 | 80 | 342 | 2.0 | 5.0 | 0.00 | 0.00 | 0.00 | 65 | 977.5 |
| 20260901075550 | 80 | 355 | 1.0 | 6.0 | 0.00 | 0.00 | 0.00 | 65 | 977.7 |
| 20260901075049 | 80 | 355 | 2.0 | 8.0 | 0.00 | 0.00 | 0.00 | 65 | 977.7 |
| 20260901074549 | 80 | 355 | 4.0 | 8.0 | 0.00 | 0.00 | 0.00 | 65 | 977.6 |
| 20260901074049 | 80 | 16 | 3.0 | 8.0 | 0.00 | 0.00 | 0.00 | 65 | 977.6 |
| 20260901073550 | 80 | 28 | 5.0 | 8.0 | 0.00 | 0.00 | 0.00 | 65 | 977.4 |
| 20260901073050 | 80 | 5 | 3.0 | 8.0 | 0.00 | 0.00 | 0.00 | 65 | 977.4 |
| 20260901072551 | 80 | 22 | 4.0 | 8.0 | 0.00 | 0.00 | 0.00 | 65 | 977.6 |
| 20260901072050 | 80 | 348 | 3.0 | 6.0 | 0.00 | 0.00 | 0.00 | 65 | 977.3 |
| 20260901071550 | 80 | 302 | 2.0 | 4.0 | 0.00 | 0.00 | 0.00 | 65 | 977.4 |
| 20260901071050 | 80 | 294 | 2.0 | 3.0 | 0.00 | 0.00 | 0.00 | 65 | 977.3 |
| 20260901070550 | 80 | 294 | 1.0 | 3.0 | 0.00 | 0.00 | 0.00 | 65 | 977.2 |
| 20260901070052 | 80 | 293 | 0.0 | 5.0 | 0.00 | 0.00 | 0.00 | 65 | 977.3 |
| 20260901065550 | 80 | 292 | 2.0 | 5.0 | 0.00 | 0.01 | 0.00 | 66 | 977.3 |
| 20260901065050 | 79 | 337 | 2.0 | 4.0 | 0.00 | 0.01 | 0.00 | 66 | 977.2 |
| 20260901064551 | 79 | 337 | 0.0 | 2.0 | 0.00 | 0.01 | 0.00 | 66 | 977.2 |
| 20260901064049 | 79 | 337 | 0.0 | 0.0 | 0.00 | 0.01 | 0.00 | 66 | 977.2 |
| 20260901063549 | 79 | 337 | 0.0 | 0.0 | 0.00 | 0.01 | 0.00 | 66 | 977.3 |
| 20260901063055 | 79 | 337 | 0.0 | 0.0 | 0.00 | 0.01 | 0.00 | 66 | 977.3 |
| 20260901062550 | 79 | 337 | 0.0 | 3.0 | 0.00 | 0.01 | 0.00 | 66 | 977.1 |
| 20260901062053 | 79 | 337 | 0.0 | 4.0 | 0.00 | 0.01 | 0.00 | 66 | 976.8 |
| 20260901061550 | 80 | 337 | 2.0 | 6.0 | 0.00 | 0.01 | 0.00 | 66 | 976.8 |
| 20260901061050 | 80 | 336 | 3.0 | 6.0 | 0.00 | 0.01 | 0.00 | 65 | 976.8 |
| 20260901060552 | 80 | 331 | 3.0 | 8.0 | 0.00 | 0.01 | 0.00 | 65 | 976.7 |
| 20260901060050 | 80 | 329 | 4.0 | 8.0 | 0.00 | 0.01 | 0.00 | 64 | 976.7 |
| 20260901055550 | 81 | 340 | 4.0 | 9.0 | 0.00 | 0.01 | 0.00 | 63 | 976.6 |
| 20260901055050 | 81 | 339 | 5.0 | 9.0 | 0.00 | 0.01 | 0.00 | 62 | 976.6 |
| 20260901054550 | 81 | 341 | 5.0 | 11.0 | 0.00 | 0.01 | 0.00 | 62 | 976.6 |
| 20260901054050 | 81 | 350 | 6.0 | 11.0 | 0.00 | 0.01 | 0.00 | 61 | 976.7 |
| 20260901053552 | 81 | 344 | 7.0 | 10.0 | 0.00 | 0.01 | 0.00 | 61 | 976.7 |
| 20260901053058 | 82 | 328 | 3.0 | 10.0 | 0.00 | 0.01 | 0.00 | 59 | 976.7 |
| 20260901052549 | 82 | 328 | 5.0 | 10.0 | 0.00 | 0.01 | 0.00 | 59 | 976.7 |
| 20260901052049 | 82 | 327 | 6.0 | 12.0 | 0.00 | 0.01 | 0.00 | 58 | 976.7 |
| 20260901051552 | 82 | 330 | 5.0 | 12.0 | 0.00 | 0.01 | 0.00 | 58 | 976.8 |
| 20260901051050 | 82 | 321 | 7.0 | 13.0 | 0.00 | 0.01 | 0.00 | 57 | 976.7 |
| 20260901050550 | 82 | 298 | 8.0 | 13.0 | 0.00 | 0.01 | 0.00 | 57 | 976.7 |
| 20260901050050 | 82 | 326 | 9.0 | 12.0 | 0.00 | 0.01 | 0.00 | 56 | 976.7 |
| 20260901045550 | 83 | 313 | 7.0 | 13.0 | 0.00 | 0.16 | 0.00 | 56 | 976.7 |
| 20260901045049 | 83 | 310 | 9.0 | 13.0 | 0.00 | 0.16 | 0.00 | 56 | 976.7 |
| 20260901044550 | 83 | 303 | 9.0 | 14.0 | 0.00 | 0.16 | 0.00 | 56 | 976.6 |
| 20260901044050 | 82 | 290 | 9.0 | 14.0 | 0.00 | 0.16 | 0.00 | 56 | 976.6 |
| 20260901043550 | 82 | 303 | 9.0 | 14.0 | 0.00 | 0.16 | 0.00 | 57 | 976.6 |
| 20260901043050 | 82 | 313 | 9.0 | 14.0 | 0.00 | 0.16 | 0.00 | 57 | 976.5 |
| 20260901042549 | 82 | 306 | 10.0 | 13.0 | 0.00 | 0.16 | 0.00 | 58 | 976.5 |
| 20260901042052 | 82 | 297 | 8.0 | 12.0 | 0.00 | 0.16 | 0.00 | 58 | 976.4 |
| 20260901041553 | 81 | 315 | 8.0 | 11.0 | 0.00 | 0.16 | 0.00 | 58 | 976.3 |
| 20260901041050 | 81 | 302 | 8.0 | 11.0 | 0.00 | 0.16 | 0.00 | 58 | 976.3 |
| 20260901040550 | 81 | 313 | 6.0 | 11.0 | 0.00 | 0.16 | 0.00 | 58 | 976.2 |
| 20260901040050 | 82 | 337 | 7.0 | 13.0 | 0.00 | 0.16 | 0.00 | 57 | 976.3 |
| 20260901035551 | 82 | 321 | 7.0 | 13.0 | 0.00 | 0.16 | 0.00 | 57 | 976.3 |
| 20260901035050 | 82 | 321 | 7.0 | 11.0 | 0.00 | 0.16 | 0.00 | 56 | 976.3 |
| 20260901034550 | 82 | 301 | 7.0 | 10.0 | 0.00 | 0.16 | 0.00 | 55 | 976.2 |
| 20260901034050 | 83 | 297 | 6.0 | 10.0 | 0.00 | 0.16 | 0.00 | 54 | 976.2 |
| 20260901033550 | 83 | 325 | 5.0 | 9.0 | 0.00 | 0.16 | 0.00 | 53 | 976.3 |
| 20260901033050 | 84 | 324 | 3.0 | 8.0 | 0.00 | 0.16 | 0.00 | 51 | 976.3 |
| 20260901032550 | 85 | 325 | 3.0 | 9.0 | 0.00 | 0.16 | 0.00 | 50 | 976.2 |
| 20260901032050 | 85 | 335 | 5.0 | 9.0 | 0.00 | 0.16 | 0.00 | 48 | 976.2 |
| 20260901031550 | 85 | 342 | 4.0 | 10.0 | 0.00 | 0.16 | 0.00 | 47 | 976.2 |
| 20260901031049 | 86 | 355 | 6.0 | 10.0 | 0.00 | 0.16 | 0.00 | 47 | 976.1 |
| 20260901030549 | 86 | 360 | 4.0 | 10.0 | 0.00 | 0.16 | 0.00 | 48 | 976.0 |
| 20260901030050 | 86 | 5 | 4.0 | 12.0 | 0.00 | 0.16 | 0.00 | 48 | 975.8 |
| 20260901025550 | 86 | 350 | 8.0 | 13.0 | 0.00 | 0.16 | 0.00 | 48 | 975.8 |
| 20260901025050 | 86 | 15 | 7.0 | 14.0 | 0.00 | 0.16 | 0.00 | 48 | 975.7 |
| 20260901024550 | 85 | 360 | 9.0 | 13.0 | 0.00 | 0.16 | 0.00 | 49 | 975.7 |
| 20260901024049 | 85 | 5 | 8.0 | 13.0 | 0.00 | 0.16 | 0.00 | 50 | 975.6 |
| 20260901023549 | 85 | 360 | 7.0 | 11.0 | 0.00 | 0.16 | 0.00 | 51 | 975.6 |
| 20260901023049 | 85 | 360 | 8.0 | 11.0 | 0.00 | 0.16 | 0.00 | 52 | 975.5 |
| 20260901022550 | 85 | 355 | 6.0 | 12.0 | 0.00 | 0.16 | 0.00 | 52 | 975.6 |
| 20260901022050 | 84 | 355 | 8.0 | 13.0 | 0.00 | 0.16 | 0.00 | 53 | 975.6 |
| 20260901021550 | 84 | 360 | 7.0 | 13.0 | 0.00 | 0.16 | 0.00 | 54 | 975.4 |
| 20260901021050 | 84 | 355 | 4.0 | 8.0 | 0.00 | 0.16 | 0.00 | 54 | 975.4 |
| 20260901020551 | 84 | 338 | 3.0 | 6.0 | 0.00 | 0.16 | 0.00 | 54 | 975.4 |
| 20260901020052 | 85 | 336 | 3.0 | 9.0 | 0.00 | 0.16 | 0.00 | 54 | 975.6 |
| 20260901015550 | 85 | 337 | 4.0 | 9.0 | 0.00 | 0.16 | 0.00 | 55 | 975.7 |
| 20260901015049 | 85 | 332 | 3.0 | 6.0 | 0.00 | 0.16 | 0.00 | 56 | 975.5 |
| 20260901014550 | 85 | 331 | 3.0 | 6.0 | 0.00 | 0.16 | 0.00 | 57 | 975.6 |
| 20260901014051 | 85 | 331 | 2.0 | 5.0 | 0.00 | 0.16 | 0.00 | 57 | 975.5 |
| 20260901013552 | 85 | 326 | 3.0 | 5.0 | 0.00 | 0.16 | 0.00 | 57 | 975.5 |
| 20260901013100 | 85 | 327 | 3.0 | 5.0 | 0.00 | 0.16 | 0.00 | 57 | 975.5 |
| 20260901012549 | 85 | 328 | 3.0 | 6.0 | 0.00 | 0.16 | 0.00 | 56 | 975.6 |
| 20260901012049 | 85 | 327 | 3.0 | 6.0 | 0.00 | 0.16 | 0.00 | 56 | 975.6 |
| 20260901011549 | 86 | 325 | 4.0 | 9.0 | 0.00 | 0.16 | 0.00 | 56 | 975.5 |
| 20260901011050 | 86 | 329 | 4.0 | 13.0 | 0.00 | 0.16 | 0.00 | 55 | 975.6 |
| 20260901010551 | 86 | 347 | 8.0 | 13.0 | 0.00 | 0.16 | 0.00 | 55 | 975.5 |
| 20260901010052 | 86 | 355 | 8.0 | 14.0 | 0.00 | 0.16 | 0.00 | 55 | 975.3 |
| 20260901005553 | 86 | 343 | 7.0 | 14.0 | 0.00 | 0.16 | 0.00 | 54 | 975.4 |
| 20260901005049 | 86 | 355 | 7.0 | 14.0 | 0.00 | 0.16 | 0.00 | 54 | 975.5 |
| 20260901004550 | 86 | 335 | 10.0 | 16.0 | 0.00 | 0.16 | 0.00 | 53 | 975.6 |
| 20260901004049 | 86 | 355 | 9.0 | 17.0 | 0.00 | 0.16 | 0.00 | 53 | 975.6 |
| 20260901003551 | 86 | 355 | 11.0 | 18.0 | 0.00 | 0.16 | 0.00 | 53 | 975.6 |
| 20260901003050 | 86 | 314 | 11.0 | 18.0 | 0.00 | 0.16 | 0.00 | 52 | 975.6 |
| 20260901002550 | 87 | 338 | 12.0 | 18.0 | 0.00 | 0.16 | 0.00 | 52 | 975.6 |
| 20260901002053 | 87 | 343 | 13.0 | 18.0 | 0.00 | 0.16 | 0.00 | 51 | 975.6 |
| 20260901001550 | 87 | 320 | 7.0 | 17.0 | 0.00 | 0.16 | 0.00 | 52 | 975.4 |
| 20260901001049 | 87 | 326 | 11.0 | 17.0 | 0.00 | 0.16 | 0.00 | 51 | 975.4 |
| 20260901000549 | 87 | 333 | 10.0 | 17.0 | 0.00 | 0.16 | 0.00 | 51 | 975.7 |
| 20260901000049 | 87 | 344 | 10.0 | 18.0 | 0.00 | 0.16 | 0.00 | 51 | 975.7 |
| 20260831235550 | 87 | 347 | 11.0 | 18.0 | 0.00 | 0.16 | 0.00 | 50 | 975.7 |
| 20260831235052 | 87 | 355 | 11.0 | 18.0 | 0.00 | 0.16 | 0.00 | 52 | 975.6 |
| 20260831234556 | 87 | 344 | 10.0 | 16.0 | 0.00 | 0.16 | 0.00 | 52 | 975.7 |
| 20260831234053 | 86 | 360 | 12.0 | 19.0 | 0.00 | 0.16 | 0.00 | 53 | 975.9 |
| 20260831233549 | 86 | 306 | 12.0 | 20.0 | 0.00 | 0.16 | 0.00 | 53 | 975.9 |
| 20260831233055 | 86 | 316 | 12.0 | 21.0 | 0.00 | 0.16 | 0.00 | 53 | 975.9 |
| 20260831232549 | 86 | 301 | 14.0 | 21.0 | 0.00 | 0.16 | 0.00 | 53 | 976.0 |
| 20260831232049 | 86 | 346 | 10.0 | 21.0 | 0.00 | 0.16 | 0.00 | 53 | 976.1 |
| 20260831231550 | 86 | 341 | 10.0 | 21.0 | 0.00 | 0.16 | 0.00 | 53 | 976.1 |